[Date Prev][Date Next][Thread Prev][Thread Next] - [Date Index][Thread Index][Author Index]
2 Line ISS Keps 4-6
- Subject: [sarex] 2 Line ISS Keps 4-6
- From: "Dave Larsen Ph.D." <doc@xxxxxxxxxxx>
- Date: Sat, 5 Apr 2003 01:39:14 -0800
ISS
1 25544U 98067A 03095.16838007 .00122024 00000-0 15391-2 0 8575
2 25544 51.6364 26.9547 0004132 22.8049 119.6556 15.58680257249617
----
Via the sarex mailing list at AMSAT.ORG courtesy of AMSAT-NA.
To unsubscribe, send "unsubscribe sarex" to Majordomo@amsat.org
AMSAT Home